Flag Weather past 2 weeks in Little Rock, Arkansas, U.S.A.

Now
58 °F

Light rain. Fog.


Feels Like: 56 °F
Forecast: 56 / 67 °F
Wind: 9 mph from Southeast

Location: Adams Field

Current Time: Nov 23, 2014 at 7:46:18 AM

Latest Report: Nov 23, 2014 at 6:53 AM


Visibility: 3 mi

Pressure: 29.66 "Hg

Humidity: 90%

Dew point: 55 °F

Location of Little RockLocation

Historic Weather in Little Rock — Graph

°F

Little Rock temperature yesterday

Maximum temperature yesterday: 67 °F (at 2:53 PM)
Minimum temperature yesterday: 46 °F (at 4:53 AM)
Average temperature yesterday: 56 °F

Past Weeks' High & Low Weather Summary

 TemperatureHumidityPressure
High74 °F (Nov 10, 1:53 PM)94% (Nov 21, 9:03 PM)30.55 "Hg (Nov 21, 9:03 PM)
Low20 °F (Nov 18, 5:53 AM)25% (Nov 13, 3:53 PM)29.68 "Hg (Nov 23, 5:53 AM)
Average44 °F62%30.20 "Hg
* Reported Nov 8 5:53 AM — Nov 23 5:53 AM, Little Rock, Weather by CustomWeather, © 2014

Note: Actual official high and low records may vary slightly from our data, if they occured in-between our weather recording intervals... More about our weather records

Advertising

Little Rock weather history for previous 24 hours

 ConditionsComfort  
Time TempWeatherWind HumidityBarometerVisibility
5:53 AM
Nov 23
58 °FLight rain. Fog.13 mph87%29.68 "Hg5 mi
4:53 AM58 °FLight rain. Fog.13 mph87%29.69 "Hg5 mi
4:02 AM57 °FLight rain. Fog.18 mph88%29.71 "Hg5 mi
3:53 AM57 °FLight rain. Overcast.15 mph87%29.72 "Hg7 mi
2:53 AM59 °FLight rain. Overcast.17 mph75%29.74 "Hg10 mi
1:53 AM60 °FMostly cloudy.16 mph69%29.77 "Hg10 mi
12:53 AM59 °FMostly cloudy.8 mph72%29.82 "Hg10 mi
11:53 PM
Nov 22
58 °FPartly cloudy.9 mph75%29.87 "Hg10 mi
10:53 PM59 °FOvercast.7 mph72%29.89 "Hg10 mi
9:53 PM60 °FPartly cloudy.9 mph75%29.92 "Hg10 mi
8:53 PM59 °FMostly cloudy.7 mph81%29.95 "Hg10 mi
7:53 PM60 °FPartly cloudy.7 mph75%29.97 "Hg10 mi
6:53 PM57 °FMostly cloudy.7 mph78%29.99 "Hg10 mi
5:53 PM56 °FOvercast.5 mph81%30.01 "Hg10 mi
4:53 PM62 °FPartly sunny.6 mph67%30.00 "Hg10 mi
3:53 PM65 °FBroken clouds.12 mph59%29.99 "Hg10 mi
2:53 PM67 °FBroken clouds.8 mph55%30.01 "Hg10 mi
1:53 PM66 °FBroken clouds.9 mph56%30.03 "Hg10 mi
12:53 PM64 °FPartly sunny.7 mph61%30.09 "Hg10 mi
11:53 AM62 °FPartly sunny.8 mph62%30.14 "Hg10 mi
10:53 AM61 °FBroken clouds.7 mph67%30.19 "Hg10 mi
9:53 AM58 °FPartly sunny.5 mph78%30.20 "Hg10 mi
8:53 AM55 °FBroken clouds.6 mph83%30.21 "Hg10 mi
7:53 AM52 °FPartly sunny.No wind89%30.20 "Hg7 mi
Weather by CustomWeather, © 2014

See weather overviewHow to use our weather pages